Time,TemperatureF,DewpointF,PressureIn,WindDirection,WindDirectionDegrees,WindSpeedMPH,WindSpeedGustMPH,Humidity,HourlyPrecipIn,Conditions,Clouds,dailyrainin,SoftwareType,DateUTC
2013-07-18 00:02:00,80.0,-99.9,-100.00,West,260,0.0,0.0,-999,-99.99,,,-99.99,,2013-07-18 05:02:00,
2013-07-18 00:11:00,80.0,-99.9,-100.00,WSW,248,3.0,0.0,-999,-99.99,,,-99.99,,2013-07-18 05:11:00,
2013-07-18 00:22:00,80.0,-99.9,-100.00,SSW,206,0.0,4.0,-999,-99.99,,,-99.99,,2013-07-18 05:22:00,
2013-07-18 00:32:00,80.0,-99.9,-100.00,SSW,206,0.0,0.0,-999,-99.99,,,-99.99,,2013-07-18 05:32:00,
2013-07-18 00:43:00,80.0,-99.9,-100.00,WSW,240,3.0,3.0,-999,-99.99,,,-99.99,,2013-07-18 05:43:00,
2013-07-18 00:52:00,80.0,-99.9,-100.00,WSW,237,3.0,5.0,-999,-99.99,,,-99.99,,2013-07-18 05:52:00,
2013-07-18 01:01:00,79.0,-99.9,-100.00,NW,313,3.0,5.0,-999,-99.99,,,-99.99,,2013-07-18 06:01:00,
2013-07-18 01:12:00,79.0,-99.9,-100.00,WSW,239,4.0,4.0,-999,-99.99,,,-99.99,,2013-07-18 06:12:00,
2013-07-18 01:22:00,79.0,-99.9,-100.00,SW,219,0.0,6.0,-999,-99.99,,,-99.99,,2013-07-18 06:22:00,
2013-07-18 01:32:00,79.0,-99.9,-100.00,SW,219,0.0,0.0,-999,-99.99,,,-99.99,,2013-07-18 06:32:00,
2013-07-18 01:43:00,79.0,-99.9,-100.00,SW,219,5.0,5.0,-999,-99.99,,,-99.99,,2013-07-18 06:43:00,
2013-07-18 01:52:00,79.0,-99.9,-100.00,WSW,251,3.0,5.0,-999,-99.99,,,-99.99,,2013-07-18 06:52:00,
2013-07-18 02:01:00,79.0,-99.9,-100.00,SW,216,3.0,6.0,-999,-99.99,,,-99.99,,2013-07-18 07:01:00,
2013-07-18 02:12:00,79.0,-99.9,-100.00,SW,229,0.0,0.0,-999,-99.99,,,-99.99,,2013-07-18 07:12:00,
2013-07-18 02:22:00,79.0,-99.9,-100.00,SW,229,0.0,0.0,-999,-99.99,,,-99.99,,2013-07-18 07:22:00,
2013-07-18 02:32:00,78.0,-99.9,-100.00,SW,229,0.0,0.0,-999,-99.99,,,-99.99,,2013-07-18 07:32:00,
2013-07-18 02:42:00,78.0,-99.9,-100.00,SW,229,0.0,0.0,-999,-99.99,,,-99.99,,2013-07-18 07:42:00,
2013-07-18 02:52:00,78.0,-99.9,-100.00,SW,229,0.0,0.0,-999,-99.99,,,-99.99,,2013-07-18 07:52:00,
2013-07-18 03:01:00,78.0,-99.9,-100.00,SW,229,0.0,0.0,-999,-99.99,,,-99.99,,2013-07-18 08:01:00,
2013-07-18 03:11:00,78.0,-99.9,-100.00,SW,229,0.0,0.0,-999,-99.99,,,-99.99,,2013-07-18 08:11:00,
2013-07-18 03:21:00,78.0,-99.9,-100.00,SW,229,0.0,0.0,-999,-99.99,,,-99.99,,2013-07-18 08:21:00,
2013-07-18 03:32:00,78.0,-99.9,-100.00,SW,229,0.0,0.0,-999,-99.99,,,-99.99,,2013-07-18 08:32:00,
2013-07-18 03:42:00,78.0,-99.9,-100.00,SW,229,0.0,0.0,-999,-99.99,,,-99.99,,2013-07-18 08:42:00,
2013-07-18 03:52:00,78.0,-99.9,-100.00,SW,229,0.0,0.0,-999,-99.99,,,-99.99,,2013-07-18 08:52:00,
2013-07-18 04:01:00,78.0,-99.9,-100.00,SW,229,0.0,0.0,-999,-99.99,,,-99.99,,2013-07-18 09:01:00,
2013-07-18 04:11:00,78.0,-99.9,-100.00,SW,229,0.0,0.0,-999,-99.99,,,-99.99,,2013-07-18 09:11:00,
2013-07-18 04:21:00,77.0,-99.9,-100.00,SW,229,0.0,0.0,-999,-99.99,,,-99.99,,2013-07-18 09:21:00,
2013-07-18 04:32:00,77.0,-99.9,-100.00,SW,229,0.0,0.0,-999,-99.99,,,-99.99,,2013-07-18 09:32:00,
2013-07-18 04:42:00,77.0,-99.9,-100.00,SW,229,0.0,0.0,-999,-99.99,,,-99.99,,2013-07-18 09:42:00,
2013-07-18 04:52:00,77.0,-99.9,-100.00,SW,229,0.0,0.0,-999,-99.99,,,-99.99,,2013-07-18 09:52:00,
2013-07-18 05:02:00,77.0,-99.9,-100.00,SW,229,0.0,0.0,-999,-99.99,,,-99.99,,2013-07-18 10:02:00,
2013-07-18 05:11:00,77.0,-99.9,-100.00,SW,229,0.0,0.0,-999,-99.99,,,-99.99,,2013-07-18 10:11:00,
2013-07-18 05:22:00,77.0,-99.9,-100.00,SW,229,0.0,0.0,-999,-99.99,,,-99.99,,2013-07-18 10:22:00,
2013-07-18 05:32:00,77.0,-99.9,-100.00,SW,229,0.0,0.0,-999,-99.99,,,-99.99,,2013-07-18 10:32:00,
2013-07-18 05:43:00,77.0,-99.9,-100.00,SW,229,0.0,0.0,-999,-99.99,,,-99.99,,2013-07-18 10:43:00,
2013-07-18 05:52:00,77.0,-99.9,-100.00,South,171,4.0,5.0,-999,-99.99,,,-99.99,,2013-07-18 10:52:00,
2013-07-18 06:01:00,77.0,-99.9,-100.00,SSE,147,0.0,2.0,-999,-99.99,,,-99.99,,2013-07-18 11:01:00,
2013-07-18 06:12:00,77.0,-99.9,-100.00,SSE,147,0.0,0.0,-999,-99.99,,,-99.99,,2013-07-18 11:12:00,
2013-07-18 06:22:00,77.0,-99.9,-100.00,SSE,147,0.0,0.0,-999,-99.99,,,-99.99,,2013-07-18 11:22:00,
2013-07-18 06:32:00,77.0,-99.9,-100.00,SSE,147,0.0,0.0,-999,-99.99,,,-99.99,,2013-07-18 11:32:00,
2013-07-18 06:43:00,77.0,-99.9,-100.00,SSE,147,0.0,0.0,-999,-99.99,,,-99.99,,2013-07-18 11:43:00,
2013-07-18 06:52:00,77.0,-99.9,-100.00,SSE,147,0.0,0.0,-999,-99.99,,,-99.99,,2013-07-18 11:52:00,
2013-07-18 07:02:00,77.0,-99.9,-100.00,SSE,147,0.0,0.0,-999,-99.99,,,-99.99,,2013-07-18 12:02:00,
2013-07-18 07:11:00,77.0,-99.9,-100.00,SSE,147,0.0,0.0,-999,-99.99,,,-99.99,,2013-07-18 12:11:00,
2013-07-18 07:22:00,77.0,-99.9,-100.00,SSE,147,0.0,0.0,-999,-99.99,,,-99.99,,2013-07-18 12:22:00,
2013-07-18 07:33:00,78.0,-99.9,-100.00,East,91,0.0,0.0,-999,-99.99,,,-99.99,,2013-07-18 12:33:00,
2013-07-18 07:42:00,78.0,-99.9,-100.00,SSW,199,0.0,4.0,-999,-99.99,,,-99.99,,2013-07-18 12:42:00,
2013-07-18 07:52:00,78.0,-99.9,-100.00,SSW,199,0.0,0.0,-999,-99.99,,,-99.99,,2013-07-18 12:52:00,
2013-07-18 08:01:00,79.0,-99.9,-100.00,SW,229,0.0,0.0,-999,-99.99,,,-99.99,,2013-07-18 13:01:00,
2013-07-18 08:11:00,79.0,-99.9,-100.00,NW,322,0.0,2.0,-999,-99.99,,,-99.99,,2013-07-18 13:11:00,
2013-07-18 08:22:00,80.0,-99.9,-100.00,SSW,213,0.0,5.0,-999,-99.99,,,-99.99,,2013-07-18 13:22:00,
2013-07-18 08:33:00,80.0,-99.9,-100.00,North,0,0.0,5.0,-999,-99.99,,,-99.99,,2013-07-18 13:33:00,
2013-07-18 08:43:00,80.0,-99.9,-100.00,WSW,237,4.0,4.0,-999,-99.99,,,-99.99,,2013-07-18 13:43:00,
2013-07-18 08:53:00,80.0,-99.9,-100.00,WSW,257,4.0,5.0,-999,-99.99,,,-99.99,,2013-07-18 13:53:00,
2013-07-18 09:02:00,81.0,-99.9,-100.00,SSW,198,0.0,4.0,-999,-99.99,,,-99.99,,2013-07-18 14:02:00,
2013-07-18 09:12:00,81.0,-99.9,-100.00,SSW,192,0.0,4.0,-999,-99.99,,,-99.99,,2013-07-18 14:12:00,
2013-07-18 09:22:00,81.0,-99.9,-100.00,SSE,164,0.0,6.0,-999,-99.99,,,-99.99,,2013-07-18 14:22:00,
2013-07-18 09:33:00,82.0,-99.9,-100.00,SSE,164,0.0,0.0,-999,-99.99,,,-99.99,,2013-07-18 14:33:00,
2013-07-18 09:43:00,83.0,-99.9,-100.00,SW,226,0.0,6.0,-999,-99.99,,,-99.99,,2013-07-18 14:43:00,
2013-07-18 09:53:00,84.0,-99.9,-100.00,WSW,254,5.0,6.0,-999,-99.99,,,-99.99,,2013-07-18 14:53:00,
2013-07-18 10:01:00,84.0,-99.9,-100.00,SW,233,0.0,5.0,-999,-99.99,,,-99.99,,2013-07-18 15:01:00,
2013-07-18 10:12:00,85.0,-99.9,-100.00,SW,230,2.0,7.0,-999,-99.99,,,-99.99,,2013-07-18 15:12:00,
2013-07-18 10:22:00,86.0,-99.9,-100.00,West,267,0.0,7.0,-999,-99.99,,,-99.99,,2013-07-18 15:22:00,
2013-07-18 10:32:00,85.0,-99.9,-100.00,WNW,286,4.0,4.0,-999,-99.99,,,-99.99,,2013-07-18 15:32:00,
2013-07-18 10:43:00,86.0,-99.9,-100.00,SW,230,5.0,5.0,-999,-99.99,,,-99.99,,2013-07-18 15:43:00,
2013-07-18 10:53:00,87.0,-99.9,-100.00,WSW,255,3.0,5.0,-999,-99.99,,,-99.99,,2013-07-18 15:53:00,
2013-07-18 11:02:00,87.0,-99.9,-100.00,West,262,3.0,8.0,-999,-99.99,,,-99.99,,2013-07-18 16:02:00,
2013-07-18 11:12:00,87.0,-99.9,-100.00,West,261,0.0,9.0,-999,-99.99,,,-99.99,,2013-07-18 16:12:00,
2013-07-18 11:22:00,88.0,-99.9,-100.00,WSW,244,3.0,8.0,-999,-99.99,,,-99.99,,2013-07-18 16:22:00,
2013-07-18 11:32:00,88.0,-99.9,-100.00,SSW,199,0.0,6.0,-999,-99.99,,,-99.99,,2013-07-18 16:32:00,
2013-07-18 11:42:00,88.0,-99.9,-100.00,SW,233,3.0,8.0,-999,-99.99,,,-99.99,,2013-07-18 16:42:00,
2013-07-18 11:52:00,87.0,-99.9,-100.00,SW,223,0.0,6.0,-999,-99.99,,,-99.99,,2013-07-18 16:52:00,
2013-07-18 12:02:00,87.0,-99.9,-100.00,SSW,194,2.0,5.0,-999,-99.99,,,-99.99,,2013-07-18 17:02:00,
2013-07-18 12:11:00,87.0,-99.9,-100.00,WSW,258,3.0,7.0,-999,-99.99,,,-99.99,,2013-07-18 17:11:00,
2013-07-18 12:22:00,87.0,-99.9,-100.00,WSW,247,4.0,9.0,-999,-99.99,,,-99.99,,2013-07-18 17:22:00,
2013-07-18 12:33:00,87.0,-99.9,-100.00,SW,227,6.0,9.0,-999,-99.99,,,-99.99,,2013-07-18 17:33:00,
2013-07-18 12:43:00,87.0,-99.9,-100.00,SW,232,12.0,12.0,-999,-99.99,,,-99.99,,2013-07-18 17:43:00,
2013-07-18 12:52:00,88.0,-99.9,-100.00,SSW,206,7.0,8.0,-999,-99.99,,,-99.99,,2013-07-18 17:52:00,
2013-07-18 13:01:00,88.0,-99.9,-100.00,SW,234,4.0,7.0,-999,-99.99,,,-99.99,,2013-07-18 18:01:00,
2013-07-18 13:12:00,88.0,-99.9,-100.00,WSW,241,3.0,8.0,-999,-99.99,,,-99.99,,2013-07-18 18:12:00,
2013-07-18 13:22:00,88.0,-99.9,-100.00,SW,216,3.0,10.0,-999,-99.99,,,-99.99,,2013-07-18 18:22:00,
2013-07-18 13:33:00,89.0,-99.9,-100.00,WNW,298,5.0,12.0,-999,-99.99,,,-99.99,,2013-07-18 18:33:00,
2013-07-18 13:43:00,90.0,-99.9,-100.00,WSW,246,2.0,10.0,-999,-99.99,,,-99.99,,2013-07-18 18:43:00,
2013-07-18 13:52:00,90.0,-99.9,-100.00,NW,306,0.0,10.0,-999,-99.99,,,-99.99,,2013-07-18 18:52:00,
2013-07-18 14:02:00,89.0,-99.9,-100.00,SE,136,1.0,9.0,-999,-99.99,,,-99.99,,2013-07-18 19:02:00,
2013-07-18 14:11:00,89.0,-99.9,-100.00,WSW,257,6.0,14.0,-999,-99.99,,,-99.99,,2013-07-18 19:11:00,
2013-07-18 14:32:00,90.0,-99.9,-100.00,SSW,206,10.0,10.0,-999,-99.99,,,-99.99,,2013-07-18 19:32:00,
2013-07-18 14:43:00,91.0,-99.9,-100.00,SW,233,4.0,10.0,-999,-99.99,,,-99.99,,2013-07-18 19:43:00,
2013-07-18 14:53:00,91.0,-99.9,-100.00,WSW,244,3.0,10.0,-999,-99.99,,,-99.99,,2013-07-18 19:53:00,
2013-07-18 15:02:00,90.0,-99.9,-100.00,SW,233,9.0,9.0,-999,-99.99,,,-99.99,,2013-07-18 20:02:00,
2013-07-18 15:11:00,89.0,-99.9,-100.00,SW,220,4.0,11.0,-999,-99.99,,,-99.99,,2013-07-18 20:11:00,
2013-07-18 15:22:00,90.0,-99.9,-100.00,WSW,239,9.0,13.0,-999,-99.99,,,-99.99,,2013-07-18 20:22:00,
2013-07-18 15:32:00,90.0,-99.9,-100.00,WSW,248,10.0,12.0,-999,-99.99,,,-99.99,,2013-07-18 20:32:00,
2013-07-18 15:43:00,89.0,-99.9,-100.00,WSW,243,2.0,11.0,-999,-99.99,,,-99.99,,2013-07-18 20:43:00,
2013-07-18 15:52:00,89.0,-99.9,-100.00,South,187,0.0,12.0,-999,-99.99,,,-99.99,,2013-07-18 20:52:00,
2013-07-18 16:01:00,90.0,-99.9,-100.00,WSW,239,6.0,10.0,-999,-99.99,,,-99.99,,2013-07-18 21:01:00,
2013-07-18 16:11:00,91.0,-99.9,-100.00,South,180,0.0,10.0,-999,-99.99,,,-99.99,,2013-07-18 21:11:00,
2013-07-18 16:22:00,90.0,-99.9,-100.00,WSW,253,9.0,14.0,-999,-99.99,,,-99.99,,2013-07-18 21:22:00,
2013-07-18 16:32:00,89.0,-99.9,-100.00,SW,217,5.0,10.0,-999,-99.99,,,-99.99,,2013-07-18 21:32:00,
2013-07-18 16:43:00,89.0,-99.9,-100.00,SSW,199,3.0,10.0,-999,-99.99,,,-99.99,,2013-07-18 21:43:00,
2013-07-18 16:52:00,89.0,-99.9,-100.00,SW,215,5.0,10.0,-999,-99.99,,,-99.99,,2013-07-18 21:52:00,
2013-07-18 17:01:00,90.0,-99.9,-100.00,SSW,202,3.0,11.0,-999,-99.99,,,-99.99,,2013-07-18 22:01:00,
2013-07-18 17:11:00,90.0,-99.9,-100.00,SW,220,2.0,9.0,-999,-99.99,,,-99.99,,2013-07-18 22:11:00,
2013-07-18 17:22:00,90.0,-99.9,-100.00,South,191,0.0,10.0,-999,-99.99,,,-99.99,,2013-07-18 22:22:00,
2013-07-18 17:32:00,90.0,-99.9,-100.00,SW,236,6.0,9.0,-999,-99.99,,,-99.99,,2013-07-18 22:32:00,
2013-07-18 17:43:00,90.0,-99.9,-100.00,WSW,243,6.0,9.0,-999,-99.99,,,-99.99,,2013-07-18 22:43:00,
2013-07-18 17:53:00,90.0,-99.9,-100.00,WSW,248,8.0,10.0,-999,-99.99,,,-99.99,,2013-07-18 22:53:00,
2013-07-18 18:02:00,89.0,-99.9,-100.00,SW,226,6.0,9.0,-999,-99.99,,,-99.99,,2013-07-18 23:02:00,
2013-07-18 18:12:00,89.0,-99.9,-100.00,WSW,250,4.0,7.0,-999,-99.99,,,-99.99,,2013-07-18 23:12:00,
2013-07-18 18:22:00,89.0,-99.9,-100.00,WSW,247,9.0,13.0,-999,-99.99,,,-99.99,,2013-07-18 23:22:00,
2013-07-18 18:32:00,89.0,-99.9,-100.00,SW,232,4.0,10.0,-999,-99.99,,,-99.99,,2013-07-18 23:32:00,
2013-07-18 18:42:00,88.0,-99.9,-100.00,West,278,5.0,8.0,-999,-99.99,,,-99.99,,2013-07-18 23:42:00,
2013-07-18 18:52:00,88.0,-99.9,-100.00,West,262,4.0,10.0,-999,-99.99,,,-99.99,,2013-07-18 23:52:00,
2013-07-18 19:01:00,88.0,-99.9,-100.00,SSW,194,3.0,6.0,-999,-99.99,,,-99.99,,2013-07-19 00:01:00,
2013-07-18 19:11:00,87.0,-99.9,-100.00,WSW,244,4.0,7.0,-999,-99.99,,,-99.99,,2013-07-19 00:11:00,
2013-07-18 19:22:00,87.0,-99.9,-100.00,SSW,201,0.0,7.0,-999,-99.99,,,-99.99,,2013-07-19 00:22:00,
2013-07-18 19:32:00,87.0,-99.9,-100.00,SW,223,4.0,6.0,-999,-99.99,,,-99.99,,2013-07-19 00:32:00,
2013-07-18 19:43:00,87.0,-99.9,-100.00,SSE,157,0.0,8.0,-999,-99.99,,,-99.99,,2013-07-19 00:43:00,
2013-07-18 19:52:00,86.0,-99.9,-100.00,SW,229,5.0,5.0,-999,-99.99,,,-99.99,,2013-07-19 00:52:00,
2013-07-18 20:01:00,86.0,-99.9,-100.00,SW,226,4.0,5.0,-999,-99.99,,,-99.99,,2013-07-19 01:01:00,
2013-07-18 20:11:00,86.0,-99.9,-100.00,WSW,247,5.0,6.0,-999,-99.99,,,-99.99,,2013-07-19 01:11:00,
2013-07-18 20:22:00,85.0,-99.9,-100.00,WSW,243,0.0,7.0,-999,-99.99,,,-99.99,,2013-07-19 01:22:00,
2013-07-18 20:32:00,85.0,-99.9,-100.00,SSW,205,0.0,4.0,-999,-99.99,,,-99.99,,2013-07-19 01:32:00,
2013-07-18 20:42:00,85.0,-99.9,-100.00,ESE,108,0.0,0.0,-999,-99.99,,,-99.99,,2013-07-19 01:42:00,
2013-07-18 20:52:00,84.0,-99.9,-100.00,SSW,199,0.0,4.0,-999,-99.99,,,-99.99,,2013-07-19 01:52:00,
2013-07-18 21:02:00,84.0,-99.9,-100.00,SW,217,2.0,3.0,-999,-99.99,,,-99.99,,2013-07-19 02:02:00,
2013-07-18 21:11:00,84.0,-99.9,-100.00,WSW,248,0.0,5.0,-999,-99.99,,,-99.99,,2013-07-19 02:11:00,
2013-07-18 21:22:00,83.0,-99.9,-100.00,SW,230,5.0,8.0,-999,-99.99,,,-99.99,,2013-07-19 02:22:00,
2013-07-18 21:32:00,83.0,-99.9,-100.00,SW,226,5.0,6.0,-999,-99.99,,,-99.99,,2013-07-19 02:32:00,
2013-07-18 21:43:00,83.0,-99.9,-100.00,WSW,243,5.0,6.0,-999,-99.99,,,-99.99,,2013-07-19 02:43:00,
2013-07-18 21:52:00,83.0,-99.9,-100.00,SW,226,2.0,6.0,-999,-99.99,,,-99.99,,2013-07-19 02:52:00,
2013-07-18 22:01:00,82.0,-99.9,-100.00,SSW,212,4.0,6.0,-999,-99.99,,,-99.99,,2013-07-19 03:01:00,
2013-07-18 22:11:00,82.0,-99.9,-100.00,WSW,257,7.0,7.0,-999,-99.99,,,-99.99,,2013-07-19 03:11:00,
2013-07-18 22:22:00,82.0,-99.9,-100.00,SW,220,4.0,7.0,-999,-99.99,,,-99.99,,2013-07-19 03:22:00,
2013-07-18 22:43:00,82.0,-99.9,-100.00,SW,226,5.0,8.0,-999,-99.99,,,-99.99,,2013-07-19 03:43:00,
2013-07-18 23:02:00,81.0,-99.9,-100.00,SW,234,6.0,9.0,-999,-99.99,,,-99.99,,2013-07-19 04:02:00,
2013-07-18 23:12:00,81.0,-99.9,-100.00,SW,223,5.0,9.0,-999,-99.99,,,-99.99,,2013-07-19 04:12:00,
2013-07-18 23:22:00,81.0,-99.9,-100.00,SW,234,5.0,9.0,-999,-99.99,,,-99.99,,2013-07-19 04:22:00,
2013-07-18 23:33:00,81.0,-99.9,-100.00,SW,232,6.0,8.0,-999,-99.99,,,-99.99,,2013-07-19 04:33:00,
2013-07-18 23:44:00,81.0,-99.9,-100.00,SW,232,5.0,10.0,-999,-99.99,,,-99.99,,2013-07-19 04:44:00,
2013-07-18 23:52:00,81.0,-99.9,-100.00,WSW,251,6.0,9.0,-999,-99.99,,,-99.99,,2013-07-19 04:52:00,